Year,Month,Day,Hour,Minute,Value (Times are PST for barometer in hPa)
2017,05,16,00,01,999.30
2017,05,16,00,02,999.30
2017,05,16,00,03,999.30
2017,05,16,00,04,999.30
2017,05,16,00,06,999.20
2017,05,16,00,07,999.20
2017,05,16,00,09,999.20
2017,05,16,00,10,999.20
2017,05,16,00,11,999.20
2017,05,16,00,12,999.20
2017,05,16,00,13,999.20
2017,05,16,00,14,999.20
2017,05,16,00,15,999.20
2017,05,16,00,16,999.30
2017,05,16,00,17,999.30
2017,05,16,00,18,999.30
2017,05,16,00,19,999.30
2017,05,16,00,20,999.30
2017,05,16,00,21,999.30
2017,05,16,00,22,999.30
2017,05,16,00,23,999.40
2017,05,16,00,24,999.40
2017,05,16,00,25,999.40
2017,05,16,00,26,999.40
2017,05,16,00,27,999.40
2017,05,16,00,28,999.40
2017,05,16,00,29,999.50
2017,05,16,00,30,999.40
2017,05,16,00,31,999.40
2017,05,16,00,32,999.40
2017,05,16,00,33,999.40
2017,05,16,00,34,999.40
2017,05,16,00,35,999.30
2017,05,16,00,36,999.30
2017,05,16,00,37,999.30
2017,05,16,00,38,999.30
2017,05,16,00,39,999.30
2017,05,16,00,40,999.30
2017,05,16,00,41,999.30
2017,05,16,00,42,999.30
2017,05,16,00,43,999.30
2017,05,16,00,44,999.30
2017,05,16,00,45,999.30
2017,05,16,00,46,999.30
2017,05,16,00,47,999.30
2017,05,16,00,48,999.30
2017,05,16,00,49,999.30
2017,05,16,00,50,999.30
2017,05,16,00,51,999.40
2017,05,16,00,52,999.40
2017,05,16,00,53,999.40
2017,05,16,00,54,999.50
2017,05,16,00,55,999.50
2017,05,16,00,56,999.50
2017,05,16,00,57,999.50
2017,05,16,00,58,999.50
2017,05,16,00,59,999.50
2017,05,16,01,00,999.50
2017,05,16,01,01,999.50
2017,05,16,01,02,999.50
2017,05,16,01,03,999.50
2017,05,16,01,04,999.50
2017,05,16,01,05,999.50
2017,05,16,01,06,999.50
2017,05,16,01,07,999.40
2017,05,16,01,08,999.40
2017,05,16,01,09,999.30
2017,05,16,01,10,999.30
2017,05,16,01,11,999.30
2017,05,16,01,12,999.30
2017,05,16,01,13,999.30
2017,05,16,01,14,999.30
2017,05,16,01,15,999.30
2017,05,16,01,16,999.30
2017,05,16,01,17,999.30
2017,05,16,01,18,999.30
2017,05,16,01,19,999.30
2017,05,16,01,20,999.30
2017,05,16,01,21,999.30
2017,05,16,01,22,999.30
2017,05,16,01,23,999.30
2017,05,16,01,24,999.30
2017,05,16,01,25,999.30
2017,05,16,01,26,999.30
2017,05,16,01,27,999.30
2017,05,16,01,29,999.30
2017,05,16,01,31,999.30
2017,05,16,01,32,999.20
2017,05,16,01,33,999.20
2017,05,16,01,34,999.30
2017,05,16,01,36,999.20
2017,05,16,01,37,999.20
2017,05,16,01,38,999.20
2017,05,16,01,39,999.20
2017,05,16,01,41,999.20
2017,05,16,01,42,999.20
2017,05,16,01,43,999.20
2017,05,16,01,44,999.20
2017,05,16,01,46,999.20
2017,05,16,01,47,999.20
2017,05,16,01,48,999.20
2017,05,16,01,49,999.20
2017,05,16,01,51,999.20
2017,05,16,01,52,999.10
2017,05,16,01,53,999.10
2017,05,16,01,54,999.10
2017,05,16,01,56,999.10
2017,05,16,01,57,999.10
2017,05,16,01,58,999.10
2017,05,16,01,59,999.10
2017,05,16,02,01,999.10
2017,05,16,02,02,999.10
2017,05,16,02,03,999.10
2017,05,16,02,04,999.10
2017,05,16,02,06,999.00
2017,05,16,02,07,999.00
2017,05,16,02,08,999.00
2017,05,16,02,09,999.00
2017,05,16,02,11,999.00
2017,05,16,02,12,999.00
2017,05,16,02,13,999.00
2017,05,16,02,14,998.90
2017,05,16,02,16,998.90
2017,05,16,02,17,998.80
2017,05,16,02,18,998.90
2017,05,16,02,19,998.80
2017,05,16,02,21,998.80
2017,05,16,02,22,998.70
2017,05,16,02,23,998.70
2017,05,16,02,24,998.70
2017,05,16,02,26,998.80
2017,05,16,02,27,998.70
2017,05,16,02,28,998.80
2017,05,16,02,29,998.70
2017,05,16,02,31,998.70
2017,05,16,02,32,998.70
2017,05,16,02,33,998.60
2017,05,16,02,34,998.60
2017,05,16,02,36,998.60
2017,05,16,02,37,998.60
2017,05,16,02,38,998.60
2017,05,16,02,39,998.60
2017,05,16,02,40,998.60
2017,05,16,02,41,998.60
2017,05,16,02,42,998.60
2017,05,16,02,43,998.60
2017,05,16,02,44,998.60
2017,05,16,02,45,998.60
2017,05,16,02,46,998.60
2017,05,16,02,47,998.60
2017,05,16,02,48,998.60
2017,05,16,02,49,998.60
2017,05,16,02,50,998.60
2017,05,16,02,51,998.60
2017,05,16,02,52,998.60
2017,05,16,02,53,998.60
2017,05,16,02,54,998.60
2017,05,16,02,55,998.60
2017,05,16,02,56,998.60
2017,05,16,02,57,998.60
2017,05,16,02,58,998.60
2017,05,16,02,59,998.60
2017,05,16,03,00,998.60
2017,05,16,03,01,998.60
2017,05,16,03,02,998.60
2017,05,16,03,03,998.60
2017,05,16,03,04,998.60
2017,05,16,03,05,998.60
2017,05,16,03,06,998.60
2017,05,16,03,07,998.60
2017,05,16,03,08,998.60
2017,05,16,03,09,998.60
2017,05,16,03,10,998.60
2017,05,16,03,11,998.60
2017,05,16,03,12,998.60
2017,05,16,03,13,998.60
2017,05,16,03,14,998.60
2017,05,16,03,15,998.60
2017,05,16,03,16,998.70
2017,05,16,03,17,998.70
2017,05,16,03,18,998.70
2017,05,16,03,19,998.70
2017,05,16,03,20,998.70
2017,05,16,03,21,998.70
2017,05,16,03,22,998.70
2017,05,16,03,23,998.70
2017,05,16,03,24,998.70
2017,05,16,03,25,998.60
2017,05,16,03,26,998.60
2017,05,16,03,27,998.60
2017,05,16,03,28,998.60
2017,05,16,03,29,998.60
2017,05,16,03,30,998.60
2017,05,16,03,31,998.60
2017,05,16,03,32,998.60
2017,05,16,03,33,998.60
2017,05,16,03,34,998.60
2017,05,16,03,35,998.60
2017,05,16,03,36,998.60
2017,05,16,03,37,998.70
2017,05,16,03,38,998.60
2017,05,16,03,39,998.60
2017,05,16,03,40,998.60
2017,05,16,03,41,998.60
2017,05,16,03,42,998.60
2017,05,16,03,43,998.60
2017,05,16,03,44,998.60
2017,05,16,03,45,998.60
2017,05,16,03,46,998.60
2017,05,16,03,47,998.60
2017,05,16,03,48,998.60
2017,05,16,03,49,998.60
2017,05,16,03,50,998.60
2017,05,16,03,51,998.60
2017,05,16,03,53,998.60
2017,05,16,03,54,998.60
2017,05,16,03,56,998.60
2017,05,16,03,57,998.60
2017,05,16,03,58,998.60
2017,05,16,03,59,998.70
2017,05,16,04,01,998.70
2017,05,16,04,02,998.70
2017,05,16,04,03,998.70
2017,05,16,04,04,998.70
2017,05,16,04,06,998.80
2017,05,16,04,07,998.70
2017,05,16,04,08,998.80
2017,05,16,04,09,998.70
2017,05,16,04,11,998.80
2017,05,16,04,12,998.80
2017,05,16,04,13,998.80
2017,05,16,04,14,998.80
2017,05,16,04,16,998.80
2017,05,16,04,17,998.80
2017,05,16,04,18,998.70
2017,05,16,04,19,998.70
2017,05,16,04,21,998.70
2017,05,16,04,22,998.70
2017,05,16,04,23,998.60
2017,05,16,04,24,998.70
2017,05,16,04,26,998.70
2017,05,16,04,27,998.70
2017,05,16,04,28,998.70
2017,05,16,04,29,998.70
2017,05,16,04,31,998.70
2017,05,16,04,32,998.70
2017,05,16,04,33,998.70
2017,05,16,04,34,998.70
2017,05,16,04,36,998.70
2017,05,16,04,37,998.70
2017,05,16,04,38,998.70
2017,05,16,04,39,998.70
2017,05,16,04,41,998.60
2017,05,16,04,42,998.70
2017,05,16,04,43,998.70
2017,05,16,04,44,998.70
2017,05,16,04,46,998.60
2017,05,16,04,47,998.60
2017,05,16,04,48,998.60
2017,05,16,04,49,998.60
2017,05,16,04,51,998.50
2017,05,16,04,52,998.50
2017,05,16,04,53,998.40
2017,05,16,04,54,998.40
2017,05,16,04,56,998.20
2017,05,16,04,57,998.20
2017,05,16,04,58,998.20
2017,05,16,04,59,998.20
2017,05,16,05,01,998.10
2017,05,16,05,02,998.10
2017,05,16,05,03,998.10
2017,05,16,05,04,998.10
2017,05,16,05,06,998.10
2017,05,16,05,07,998.10
2017,05,16,05,08,998.10
2017,05,16,05,09,998.10
2017,05,16,05,10,998.10
2017,05,16,05,11,998.10
2017,05,16,05,12,998.10
2017,05,16,05,13,998.10
2017,05,16,05,14,998.10
2017,05,16,05,15,998.00
2017,05,16,05,16,998.00
2017,05,16,05,17,997.90
2017,05,16,05,18,997.90
2017,05,16,05,19,997.80
2017,05,16,05,20,997.80
2017,05,16,05,21,997.80
2017,05,16,05,22,997.70
2017,05,16,05,23,997.70
2017,05,16,05,24,997.70
2017,05,16,05,25,997.70
2017,05,16,05,26,997.70
2017,05,16,05,27,997.70
2017,05,16,05,28,997.70
2017,05,16,05,29,997.70
2017,05,16,05,30,997.70
2017,05,16,05,31,997.60
2017,05,16,05,32,997.60
2017,05,16,05,33,997.60
2017,05,16,05,34,997.60
2017,05,16,05,35,997.60
2017,05,16,05,36,997.60
2017,05,16,05,37,997.60
2017,05,16,05,38,997.60
2017,05,16,05,39,997.60
2017,05,16,05,40,997.60
2017,05,16,05,41,997.60
2017,05,16,05,42,997.60
2017,05,16,05,43,997.60
2017,05,16,05,44,997.60
2017,05,16,05,45,997.60
2017,05,16,05,46,997.60
2017,05,16,05,47,997.60
2017,05,16,05,48,997.60
2017,05,16,05,49,997.60
2017,05,16,05,50,997.60
2017,05,16,05,51,997.60
2017,05,16,05,52,997.50
2017,05,16,05,53,997.60
2017,05,16,05,54,997.60
2017,05,16,05,55,997.50
2017,05,16,05,56,997.50
2017,05,16,05,57,997.50
2017,05,16,05,58,997.50
2017,05,16,05,59,997.50
2017,05,16,06,00,997.50
2017,05,16,06,01,997.40
2017,05,16,06,02,997.40
2017,05,16,06,03,997.40
2017,05,16,06,04,997.30
2017,05,16,06,05,997.30
2017,05,16,06,06,997.30
2017,05,16,06,07,997.30
2017,05,16,06,08,997.20
2017,05,16,06,09,997.30
2017,05,16,06,10,997.20
2017,05,16,06,11,997.20
2017,05,16,06,12,997.20
2017,05,16,06,13,997.20
2017,05,16,06,14,997.20
2017,05,16,06,15,997.20
2017,05,16,06,16,997.10
2017,05,16,06,17,997.10
2017,05,16,06,18,997.10
2017,05,16,06,19,997.20
2017,05,16,06,20,997.10
2017,05,16,06,21,997.10
2017,05,16,06,22,997.20
2017,05,16,06,23,997.10
2017,05,16,06,24,997.10
2017,05,16,06,25,997.20
2017,05,16,06,27,997.20
2017,05,16,06,28,997.30
2017,05,16,06,29,997.30
2017,05,16,06,31,997.40
2017,05,16,06,32,997.40
2017,05,16,06,33,997.50
2017,05,16,06,34,997.60
2017,05,16,06,36,997.60
2017,05,16,06,37,997.60
2017,05,16,06,38,997.60
2017,05,16,06,39,997.60
2017,05,16,06,41,997.60
2017,05,16,06,42,997.60
2017,05,16,06,43,997.60
2017,05,16,06,44,997.60
2017,05,16,06,46,997.60
2017,05,16,06,47,997.60
2017,05,16,06,48,997.60
2017,05,16,06,49,997.60
2017,05,16,06,51,997.60
2017,05,16,06,52,997.60
2017,05,16,06,53,997.60
2017,05,16,06,54,997.70
2017,05,16,06,56,997.70
2017,05,16,06,57,997.80
2017,05,16,06,58,997.90
2017,05,16,06,59,998.00
2017,05,16,07,01,998.00
2017,05,16,07,02,998.00
2017,05,16,07,03,998.10
2017,05,16,07,04,998.10
2017,05,16,07,06,998.10
2017,05,16,07,07,998.10
2017,05,16,07,08,998.20
2017,05,16,07,09,998.20
2017,05,16,07,11,998.30
2017,05,16,07,12,998.30
2017,05,16,07,13,998.30
2017,05,16,07,14,998.40
2017,05,16,07,16,998.50
2017,05,16,07,17,998.40
2017,05,16,07,18,998.40
2017,05,16,07,19,998.50
2017,05,16,07,21,998.50
2017,05,16,07,22,998.50
2017,05,16,07,23,998.60
2017,05,16,07,24,998.60
2017,05,16,07,26,998.60
2017,05,16,07,27,998.60
2017,05,16,07,28,998.60
2017,05,16,07,29,998.60
2017,05,16,07,31,998.60
2017,05,16,07,32,998.60
2017,05,16,07,33,998.60
2017,05,16,07,34,998.60
2017,05,16,07,36,998.60
2017,05,16,07,37,998.60
2017,05,16,07,38,998.60
2017,05,16,07,39,998.60
2017,05,16,07,41,998.60
2017,05,16,07,42,998.60
2017,05,16,07,43,998.60
2017,05,16,07,44,998.60
2017,05,16,07,45,998.70
2017,05,16,07,46,998.70
2017,05,16,07,47,998.70
2017,05,16,07,48,998.60
2017,05,16,07,49,998.70
2017,05,16,07,51,998.60
2017,05,16,07,52,998.70
2017,05,16,07,53,998.70
2017,05,16,07,54,998.70
2017,05,16,07,55,998.80
2017,05,16,07,56,998.80
2017,05,16,07,57,998.90
2017,05,16,07,58,998.90
2017,05,16,07,59,998.90
2017,05,16,08,00,999.00
2017,05,16,08,01,999.00
2017,05,16,08,02,999.00
2017,05,16,08,03,999.00
2017,05,16,08,04,999.10
2017,05,16,08,05,999.10
2017,05,16,08,06,999.10
2017,05,16,08,07,999.10
2017,05,16,08,08,999.10
2017,05,16,08,09,999.10
2017,05,16,08,10,999.10
2017,05,16,08,11,999.10
2017,05,16,08,12,999.10
2017,05,16,08,13,999.10
2017,05,16,08,14,999.10
2017,05,16,08,15,999.10
2017,05,16,08,16,999.10
2017,05,16,08,17,999.20
2017,05,16,08,18,999.20
2017,05,16,08,19,999.20
2017,05,16,08,20,999.20
2017,05,16,08,21,999.20
2017,05,16,08,22,999.20
2017,05,16,08,23,999.20
2017,05,16,08,24,999.20
2017,05,16,08,25,999.20
2017,05,16,08,26,999.10
2017,05,16,08,27,999.20
2017,05,16,08,28,999.10
2017,05,16,08,29,999.10
2017,05,16,08,30,999.10
2017,05,16,08,31,999.10
2017,05,16,08,32,999.10
2017,05,16,08,33,999.10
2017,05,16,08,34,999.10
2017,05,16,08,35,999.10
2017,05,16,08,36,999.10
2017,05,16,08,37,999.10
2017,05,16,08,38,999.10
2017,05,16,08,39,999.10
2017,05,16,08,40,999.10
2017,05,16,08,41,999.10
2017,05,16,08,42,999.10
2017,05,16,08,43,999.10
2017,05,16,08,44,999.10
2017,05,16,08,45,999.10
2017,05,16,08,46,999.00
2017,05,16,08,47,999.00
2017,05,16,08,48,999.10
2017,05,16,08,49,999.10
2017,05,16,08,50,999.10
2017,05,16,08,51,999.10
2017,05,16,08,52,999.10
2017,05,16,08,53,999.10
2017,05,16,08,54,999.10
2017,05,16,08,55,999.10
2017,05,16,08,56,999.20
2017,05,16,08,57,999.10
2017,05,16,08,58,999.20
2017,05,16,08,59,999.10
2017,05,16,09,00,999.20
2017,05,16,09,01,999.20
2017,05,16,09,03,999.20
2017,05,16,09,04,999.20
2017,05,16,09,06,999.20
2017,05,16,09,07,999.20
2017,05,16,09,08,999.20
2017,05,16,09,09,999.20
2017,05,16,09,11,999.20
2017,05,16,09,12,999.20
2017,05,16,09,13,999.20
2017,05,16,09,14,999.20
2017,05,16,09,16,999.20
2017,05,16,09,17,999.20
2017,05,16,09,18,999.30
2017,05,16,09,19,999.30
2017,05,16,09,21,999.40
2017,05,16,09,22,999.40
2017,05,16,09,23,999.50
2017,05,16,09,24,999.50
2017,05,16,09,26,999.60
2017,05,16,09,27,999.60
2017,05,16,09,28,999.60
2017,05,16,09,29,999.60
2017,05,16,09,31,999.70
2017,05,16,09,32,999.70
2017,05,16,09,33,999.70
2017,05,16,09,34,999.60
2017,05,16,09,36,999.70
2017,05,16,09,37,999.70
2017,05,16,09,38,999.70
2017,05,16,09,39,999.70
2017,05,16,09,41,999.70
2017,05,16,09,42,999.70
2017,05,16,09,43,999.70
2017,05,16,09,44,999.70
2017,05,16,09,46,999.70
2017,05,16,09,47,999.70
2017,05,16,09,48,999.70
2017,05,16,09,49,999.70
2017,05,16,09,51,999.70
2017,05,16,09,52,999.80
2017,05,16,09,53,999.90
2017,05,16,09,54,999.90
2017,05,16,09,56,1000.00
2017,05,16,09,57,1000.00
2017,05,16,09,58,1000.10
2017,05,16,09,59,1000.10
2017,05,16,10,01,1000.10
2017,05,16,10,02,1000.20
2017,05,16,10,03,1000.20
2017,05,16,10,04,1000.20
2017,05,16,10,06,1000.20
2017,05,16,10,07,1000.20
2017,05,16,10,08,1000.20
2017,05,16,10,09,1000.20
2017,05,16,10,11,1000.20
2017,05,16,10,12,1000.20
2017,05,16,10,13,1000.20
2017,05,16,10,14,1000.20
2017,05,16,10,16,1000.20
2017,05,16,10,17,1000.20
2017,05,16,10,18,1000.20
2017,05,16,10,19,1000.20
2017,05,16,10,21,1000.20
2017,05,16,10,22,1000.20
2017,05,16,10,23,1000.20
2017,05,16,10,24,1000.20
2017,05,16,10,25,1000.20
2017,05,16,10,26,1000.20
2017,05,16,10,27,1000.20
2017,05,16,10,28,1000.20
2017,05,16,10,29,1000.20
2017,05,16,10,31,1000.20
2017,05,16,10,32,1000.20
2017,05,16,10,33,1000.20
2017,05,16,10,34,1000.20
2017,05,16,10,36,1000.20
2017,05,16,10,37,1000.20
2017,05,16,10,38,1000.20
2017,05,16,10,39,1000.20
2017,05,16,10,40,1000.20
2017,05,16,10,41,1000.20
2017,05,16,10,42,1000.20
2017,05,16,10,43,1000.30
2017,05,16,10,44,1000.30
2017,05,16,10,45,1000.30
2017,05,16,10,46,1000.30
2017,05,16,10,47,1000.30
2017,05,16,10,48,1000.40
2017,05,16,10,49,1000.40
2017,05,16,10,50,1000.40
2017,05,16,10,51,1000.60
2017,05,16,10,52,1000.60
2017,05,16,10,53,1000.60
2017,05,16,10,54,1000.70
2017,05,16,10,55,1000.70
2017,05,16,10,56,1000.70
2017,05,16,10,57,1000.70
2017,05,16,10,58,1000.70
2017,05,16,10,59,1000.70
2017,05,16,11,00,1000.70
2017,05,16,11,01,1000.70
2017,05,16,11,02,1000.70
2017,05,16,11,03,1000.80
2017,05,16,11,04,1000.80
2017,05,16,11,05,1000.90
2017,05,16,11,06,1000.90
2017,05,16,11,07,1001.00
2017,05,16,11,08,1001.00
2017,05,16,11,09,1001.10
2017,05,16,11,10,1001.00
2017,05,16,11,11,1001.10
2017,05,16,11,12,1001.10
2017,05,16,11,13,1001.10
2017,05,16,11,14,1001.10
2017,05,16,11,15,1001.20
2017,05,16,11,16,1001.20
2017,05,16,11,17,1001.20
2017,05,16,11,18,1001.20
2017,05,16,11,19,1001.20
2017,05,16,11,20,1001.20
2017,05,16,11,21,1001.20
2017,05,16,11,22,1001.20
2017,05,16,11,23,1001.20
2017,05,16,11,24,1001.20
2017,05,16,11,25,1001.30
2017,05,16,11,26,1001.30
2017,05,16,11,27,1001.30
2017,05,16,11,28,1001.30
2017,05,16,11,29,1001.30
2017,05,16,11,30,1001.30
2017,05,16,11,31,1001.30
2017,05,16,11,32,1001.20
2017,05,16,11,33,1001.20
2017,05,16,11,34,1001.30
2017,05,16,11,35,1001.30
2017,05,16,11,36,1001.30
2017,05,16,11,37,1001.30
2017,05,16,11,38,1001.30
2017,05,16,11,39,1001.30
2017,05,16,11,40,1001.40
2017,05,16,11,41,1001.40
2017,05,16,11,42,1001.40
2017,05,16,11,43,1001.50
2017,05,16,11,44,1001.50
2017,05,16,11,45,1001.50
2017,05,16,11,46,1001.40
2017,05,16,11,47,1001.40
2017,05,16,11,48,1001.40
2017,05,16,11,49,1001.40
2017,05,16,11,50,1001.50
2017,05,16,11,51,1001.50
2017,05,16,11,52,1001.60
2017,05,16,11,53,1001.60
2017,05,16,11,54,1001.70
2017,05,16,11,56,1001.70
2017,05,16,11,57,1001.70
2017,05,16,11,58,1001.70
2017,05,16,11,59,1001.70
2017,05,16,12,01,1001.70
2017,05,16,12,02,1001.70
2017,05,16,12,03,1001.70
2017,05,16,12,04,1001.70
2017,05,16,12,06,1001.70
2017,05,16,12,07,1001.70
2017,05,16,12,08,1001.70
2017,05,16,12,09,1001.70
2017,05,16,12,11,1001.70
2017,05,16,12,12,1001.70
2017,05,16,12,13,1001.70
2017,05,16,12,14,1001.70
2017,05,16,12,16,1001.70
2017,05,16,12,17,1001.70
2017,05,16,12,18,1001.80
2017,05,16,12,19,1001.80
2017,05,16,12,21,1001.80
2017,05,16,12,22,1001.80
2017,05,16,12,23,1001.80
2017,05,16,12,24,1001.80
2017,05,16,12,26,1001.80
2017,05,16,12,27,1001.80
2017,05,16,12,28,1001.80
2017,05,16,12,29,1001.80
2017,05,16,12,31,1001.90
2017,05,16,12,32,1001.80
2017,05,16,12,33,1001.90
2017,05,16,12,34,1001.90
2017,05,16,12,36,1001.90
2017,05,16,12,37,1001.90
2017,05,16,12,38,1001.90
2017,05,16,12,39,1001.90
2017,05,16,12,41,1001.90
2017,05,16,12,42,1001.90
2017,05,16,12,43,1001.90
2017,05,16,12,44,1001.90
2017,05,16,12,46,1001.90
2017,05,16,12,47,1001.90
2017,05,16,12,48,1002.00
2017,05,16,12,49,1002.00
2017,05,16,12,51,1002.10
2017,05,16,12,52,1002.00
2017,05,16,12,53,1002.10
2017,05,16,12,54,1002.10
2017,05,16,12,56,1002.10
2017,05,16,12,57,1002.20
2017,05,16,12,58,1002.20
2017,05,16,12,59,1002.20
2017,05,16,13,01,1002.20
2017,05,16,13,02,1002.20
2017,05,16,13,03,1002.20
2017,05,16,13,04,1002.20
2017,05,16,13,06,1002.20
2017,05,16,13,07,1002.20
2017,05,16,13,08,1002.20
2017,05,16,13,09,1002.30
2017,05,16,13,11,1002.30
2017,05,16,13,12,1002.30
2017,05,16,13,13,1002.30
2017,05,16,13,14,1002.30
2017,05,16,13,16,1002.30
2017,05,16,13,17,1002.30
2017,05,16,13,18,1002.20
2017,05,16,13,19,1002.20
2017,05,16,13,21,1002.20
2017,05,16,13,22,1002.20
2017,05,16,13,23,1002.30
2017,05,16,13,24,1002.30
2017,05,16,13,25,1002.30
2017,05,16,13,26,1002.30
2017,05,16,13,27,1002.30
2017,05,16,13,28,1002.20
2017,05,16,13,29,1002.20
2017,05,16,13,30,1002.20
2017,05,16,13,31,1002.20
2017,05,16,13,32,1002.30
2017,05,16,13,33,1002.30
2017,05,16,13,34,1002.30
2017,05,16,13,36,1002.30
2017,05,16,13,37,1002.30
2017,05,16,13,38,1002.30
2017,05,16,13,39,1002.30
2017,05,16,13,40,1002.30
2017,05,16,13,41,1002.30
2017,05,16,13,42,1002.30
2017,05,16,13,43,1002.30
2017,05,16,13,44,1002.30
2017,05,16,13,45,1002.30
2017,05,16,13,46,1002.30
2017,05,16,13,47,1002.30
2017,05,16,13,48,1002.30
2017,05,16,13,49,1002.30
2017,05,16,13,50,1002.30
2017,05,16,13,51,1002.30
2017,05,16,13,52,1002.30
2017,05,16,13,53,1002.30
2017,05,16,13,54,1002.30
2017,05,16,13,55,1002.40
2017,05,16,13,56,1002.40
2017,05,16,13,57,1002.40
2017,05,16,13,58,1002.40
2017,05,16,13,59,1002.50
2017,05,16,14,00,1002.50
2017,05,16,14,01,1002.50
2017,05,16,14,02,1002.60
2017,05,16,14,03,1002.60
2017,05,16,14,04,1002.60
2017,05,16,14,05,1002.60
2017,05,16,14,06,1002.70
2017,05,16,14,07,1002.70
2017,05,16,14,08,1002.70
2017,05,16,14,09,1002.80
2017,05,16,14,10,1002.80
2017,05,16,14,11,1002.80
2017,05,16,14,12,1002.80
2017,05,16,14,13,1002.80
2017,05,16,14,14,1002.80
2017,05,16,14,15,1002.80
2017,05,16,14,16,1002.80
2017,05,16,14,17,1002.80
2017,05,16,14,18,1002.80
2017,05,16,14,19,1002.80
2017,05,16,14,20,1002.80
2017,05,16,14,21,1002.80
2017,05,16,14,22,1002.80
2017,05,16,14,23,1002.80
2017,05,16,14,24,1002.80
2017,05,16,14,25,1002.80
2017,05,16,14,26,1002.80
2017,05,16,14,27,1002.80
2017,05,16,14,28,1002.80
2017,05,16,14,29,1002.80
2017,05,16,14,30,1002.80
2017,05,16,14,31,1002.90
2017,05,16,14,32,1002.90
2017,05,16,14,33,1002.90
2017,05,16,14,34,1002.90
2017,05,16,14,35,1002.90
2017,05,16,14,36,1003.00
2017,05,16,14,37,1003.00
2017,05,16,14,38,1003.00
2017,05,16,14,39,1003.00
2017,05,16,14,40,1003.00
2017,05,16,14,41,1003.00
2017,05,16,14,42,1003.00
2017,05,16,14,43,1003.00
2017,05,16,14,44,1003.00
2017,05,16,14,46,1003.00
2017,05,16,14,47,1003.10
2017,05,16,14,48,1003.10
2017,05,16,14,49,1003.10
2017,05,16,14,51,1003.10
2017,05,16,14,52,1003.10
2017,05,16,14,53,1003.20
2017,05,16,14,54,1003.20
2017,05,16,14,56,1003.20
2017,05,16,14,57,1003.30
2017,05,16,14,58,1003.30
2017,05,16,14,59,1003.30
2017,05,16,15,01,1003.30
2017,05,16,15,02,1003.30
2017,05,16,15,03,1003.30
2017,05,16,15,04,1003.30
2017,05,16,15,06,1003.30
2017,05,16,15,07,1003.30
2017,05,16,15,08,1003.30
2017,05,16,15,09,1003.30
2017,05,16,15,11,1003.40
2017,05,16,15,12,1003.40
2017,05,16,15,13,1003.40
2017,05,16,15,14,1003.40
2017,05,16,15,16,1003.40
2017,05,16,15,17,1003.40
2017,05,16,15,18,1003.40
2017,05,16,15,19,1003.40
2017,05,16,15,21,1003.40
2017,05,16,15,22,1003.40
2017,05,16,15,23,1003.40
2017,05,16,15,24,1003.40
2017,05,16,15,26,1003.40
2017,05,16,15,27,1003.40
2017,05,16,15,28,1003.40
2017,05,16,15,29,1003.40
2017,05,16,15,31,1003.40
2017,05,16,15,32,1003.40
2017,05,16,15,33,1003.40
2017,05,16,15,34,1003.40
2017,05,16,15,36,1003.40
2017,05,16,15,37,1003.50
2017,05,16,15,38,1003.50
2017,05,16,15,39,1003.50
2017,05,16,15,41,1003.60
2017,05,16,15,42,1003.60
2017,05,16,15,43,1003.60
2017,05,16,15,44,1003.70
2017,05,16,15,46,1003.70
2017,05,16,15,47,1003.70
2017,05,16,15,48,1003.70
2017,05,16,15,49,1003.80
2017,05,16,15,51,1003.80
2017,05,16,15,52,1003.80
2017,05,16,15,53,1003.80
2017,05,16,15,54,1003.80
2017,05,16,15,56,1003.80
2017,05,16,15,57,1003.80
2017,05,16,15,58,1003.80
2017,05,16,15,59,1003.80
2017,05,16,16,01,1003.80
2017,05,16,16,02,1003.80
2017,05,16,16,03,1003.80
2017,05,16,16,04,1003.90
2017,05,16,16,06,1003.90
2017,05,16,16,07,1003.90
2017,05,16,16,08,1003.80
2017,05,16,16,09,1003.90
2017,05,16,16,10,1003.90
2017,05,16,16,11,1003.90
2017,05,16,16,12,1003.90
2017,05,16,16,13,1003.90
2017,05,16,16,14,1003.90
2017,05,16,16,15,1003.90
2017,05,16,16,16,1003.90
2017,05,16,16,17,1003.90
2017,05,16,16,18,1003.90
2017,05,16,16,19,1003.90
2017,05,16,16,20,1003.90
2017,05,16,16,21,1003.90
2017,05,16,16,22,1003.90
2017,05,16,16,23,1003.90
2017,05,16,16,24,1003.90
2017,05,16,16,25,1004.00
2017,05,16,16,26,1004.00
2017,05,16,16,27,1004.00
2017,05,16,16,28,1004.00
2017,05,16,16,29,1004.00
2017,05,16,16,30,1004.10
2017,05,16,16,31,1004.00
2017,05,16,16,32,1004.10
2017,05,16,16,33,1004.10
2017,05,16,16,34,1004.10
2017,05,16,16,35,1004.10
2017,05,16,16,36,1004.20
2017,05,16,16,37,1004.20
2017,05,16,16,38,1004.20
2017,05,16,16,39,1004.30
2017,05,16,16,40,1004.30
2017,05,16,16,41,1004.30
2017,05,16,16,42,1004.30
2017,05,16,16,43,1004.30
2017,05,16,16,44,1004.30
2017,05,16,16,45,1004.30
2017,05,16,16,46,1004.30
2017,05,16,16,47,1004.30
2017,05,16,16,48,1004.30
2017,05,16,16,49,1004.30
2017,05,16,16,50,1004.30
2017,05,16,16,51,1004.30
2017,05,16,16,52,1004.30
2017,05,16,16,53,1004.30
2017,05,16,16,54,1004.30
2017,05,16,16,55,1004.30
2017,05,16,16,56,1004.30
2017,05,16,16,57,1004.30
2017,05,16,16,58,1004.30
2017,05,16,16,59,1004.40
2017,05,16,17,00,1004.30
2017,05,16,17,01,1004.40
2017,05,16,17,02,1004.30
2017,05,16,17,03,1004.30
2017,05,16,17,04,1004.30
2017,05,16,17,05,1004.30
2017,05,16,17,06,1004.30
2017,05,16,17,07,1004.30
2017,05,16,17,08,1004.30
2017,05,16,17,09,1004.40
2017,05,16,17,10,1004.40
2017,05,16,17,11,1004.40
2017,05,16,17,12,1004.40
2017,05,16,17,13,1004.40
2017,05,16,17,14,1004.40
2017,05,16,17,15,1004.40
2017,05,16,17,16,1004.40
2017,05,16,17,17,1004.40
2017,05,16,17,18,1004.40
2017,05,16,17,19,1004.40
2017,05,16,17,20,1004.40
2017,05,16,17,21,1004.40
2017,05,16,17,22,1004.40
2017,05,16,17,23,1004.40
2017,05,16,17,24,1004.40
2017,05,16,17,25,1004.40
2017,05,16,17,27,1004.40
2017,05,16,17,28,1004.40
2017,05,16,17,29,1004.40
2017,05,16,17,31,1004.40
2017,05,16,17,32,1004.40
2017,05,16,17,33,1004.40
2017,05,16,17,34,1004.40
2017,05,16,17,36,1004.40
2017,05,16,17,37,1004.40
2017,05,16,17,38,1004.40
2017,05,16,17,39,1004.40
2017,05,16,17,41,1004.40
2017,05,16,17,42,1004.40
2017,05,16,17,43,1004.40
2017,05,16,17,44,1004.40
2017,05,16,17,46,1004.40
2017,05,16,17,47,1004.40
2017,05,16,17,48,1004.40
2017,05,16,17,49,1004.40
2017,05,16,17,51,1004.40
2017,05,16,17,52,1004.40
2017,05,16,17,53,1004.40
2017,05,16,17,54,1004.40
2017,05,16,17,56,1004.40
2017,05,16,17,57,1004.40
2017,05,16,17,58,1004.40
2017,05,16,17,59,1004.40
2017,05,16,18,01,1004.40
2017,05,16,18,02,1004.40
2017,05,16,18,03,1004.40
2017,05,16,18,04,1004.40
2017,05,16,18,06,1004.40
2017,05,16,18,07,1004.40
2017,05,16,18,08,1004.40
2017,05,16,18,09,1004.40
2017,05,16,18,11,1004.40
2017,05,16,18,12,1004.40
2017,05,16,18,13,1004.40